Showing default

HAWK-6A, 55327

Orbit data source: Space-Track

HAWK-6A, 55327 is a payload satellite owned by HawkEye 360 (US) in LEO that was launched on Tue, 24 Jan 2023 UTC via an ELECTRON launch vehicle from the Wallops Island (WLPIS). Payload-class satellites include a variety of spacecraft equipped with specific instruments for various scientific and technological missions. These include communications satellites like Starlink; space stations such as the ISS; scientific satellites like the Hubble; Earth observation satellites from companies like Planet Labs, Umbra, and HawkEye 360; GPS; miniature CubeSats for education and research; and military/defense satellites.

Loading next visibility...
Identifier
55327, 2023-011D
Orbit
LEO
Country
Flag of USUS
Related business
Manufacturer
UTIAS-SFL
Mission
Operational Commercial Sigint
Bus & Motor
HAWK2G, Unknown motor
Mass
31 kg wet, 30 kg dry
Launch date (UTC)
2023-01-24 (3 years ago)
Launch vehicle
ELECTRON
Launch site
Wallops Island (WLPIS)
Object type
Payload
Rocket body
Debris
Shape & HBR
Box + 2 Pan, 1.0 m
Radar Cross Section
0.240 m², Medium (>0.1 m² and < 1m²)

Expand to show TLE details & history
Last TLE update: 15 hours ago

TLE from 15 hours ago
0 HAWK-6A
1 55327U 23011D   26094.58974181  .00009027  00000-0  39198-3 0  9994
2 55327  40.5002  59.5850 0004243 237.9205 122.1192 15.22262660176631
Epoch: 2026-04-04T14:09Z
TLE epoch observation values (Epoch: 2026-04-04T14:09:13.692Z)
Latitude
-0.00004°
Longitude
14.37057°
Altitude
500.069 km
Speed
7.616 km/s
True Right ascension
03h 58m 20s
True Declination
0° 00' 00"
Sunlit
Object was in daylight at epoch
Visualization orbit readout
Latitude
Unknown
Longitude
Unknown
Altitude
Unknown
Speed
Unknown
Apparent Right ascension
Unknown
Apparent Declination
Unknown
Sunlit
N/A
Visualization observer readout
Local Sidereal Time
11:20:55
Azimuth
Unknown
Elevation
Unknown
Doppler factor
Unknown
Orbital elements
Apogee altitude
504.294 km
Perigee altitude
498.456 km
Semi-major axis
6,879.512 km
Eccentricity
0.00042
Inclination
40.5002°
RAAN
59.585°
Arg. of periapsis
237.9205°
True anomaly
122.16037°
Mean anomaly
122.1192°
Eccentric anomaly
122.13979°
Mean motion
3.8037 °/min
Orbital period
94.64 mins
BSTAR
0.00039198
Loading maneuver chart data...
Computing Atmospheric mass density...
Loading historical data...
Loading historical data...
Loading historical data...
Loading historical data...
Loading historical data...
Loading historical data...
Loading historical data...

Documentation

Showing up to 5 results
|